Location: Thompson
(55.7500°N, 97.8670°W)
Time: 11:20:27
(UTC-06:00)

Daily predictions for brighter satellites

Satellite Brightness Start Highest point End
(mag) Time Altitude Azimuth Time Altitude Azimuth Time Altitude Azimuth
NOSS 3-1 (C) 4.2 18:21:28 10° WNW 18:28:11 54° NNE 18:35:50 10° E
NOSS 2-2 (D) 4.0 18:27:07 10° SSW 18:31:14 49° SE 18:36:14 10° NE
Cosmos 1833 Rocket 3.3 18:25:56 10° SW 18:31:29 60° NW 18:37:05 10° NNE
Cosmos 2322 3.7 18:25:50 10° NNW 18:31:37 77° NE 18:37:20 10° SE
FENGYUN 3A 4.0 18:27:18 10° SE 18:32:25 44° ENE 18:37:33 10° N
Cosmos 1238 Rocket 2.9 18:30:45 10° N 18:33:39 31° ENE 18:36:21 10° SE
Cosmos 1745 Rocket 4.0 18:28:56 10° S 18:35:11 69° E 18:41:24 10° NNE
Cosmos 1975 Rocket 4.2 18:32:33 10° NNW 18:36:45 49° W 18:40:55 10° S
Meteor 1-14 Rocket 4.4 18:31:13 10° S 18:37:12 77° E 18:43:11 10° NNE
Cosmos 2285 Rocket 4.5 18:32:33 10° NNW 18:38:43 44° NE 18:44:50 10° ESE
USA 116 4.3 18:35:09 10° N 18:39:06 68° WNW 18:43:33 10° SSW
Cosmos 1025 Rocket 4.0 18:37:01 10° N 18:40:45 26° ENE 18:44:28 10° ESE
SKYMED 2 3.6 18:36:26 10° NNE 18:40:45 58° E 18:45:02 10° S
Cosmos 1386 Rocket 4.5 18:34:53 10° S 18:40:50 60° E 18:46:45 10° NNE
Meteor 1-13 Rocket 4.2 18:35:24 10° N 18:40:53 60° ENE 18:46:26 10° SSE
Geosat 4.0 18:36:09 10° NE 18:41:13 72° ESE 18:46:14 10° SSW
Cosmos 405 Rocket 4.4 18:38:54 10° NNE 18:41:42 18° ENE 18:44:30 10° E
NOAA 12 4.1 18:38:06 10° SSE 18:43:26 82° ENE 18:48:49 10° NNW
ATLAS CENTAUR R/B 2.4 18:41:31 10° WSW 18:45:47 44° NNW 18:49:46 10° NE
COSMOS 2428 2.8 18:41:15 10° NNW 18:46:55 61° NE 18:52:33 10° SE
Okean 1-7 Rocket 4.2 18:42:50 10° N 18:47:05 36° ENE 18:51:17 10° SE
Cosmos 2237 4.2 18:41:27 10° NNW 18:47:14 72° NE 18:52:57 10° SE
Cosmos 2333 4.4 18:42:36 10° NNW 18:48:15 57° NE 18:53:55 10° SE
NOSS 2-2 (C) 3.8 18:44:12 10° SW 18:48:25 63° SE 18:53:39 10° NE
CZ-2D R/B 4.2 18:46:19 10° ESE 18:49:35 27° ENE 18:52:52 10° N
Meteor 2-4 Rocket 3.9 18:44:24 10° N 18:49:52 48° ENE 18:55:10 10° SE
Cosmos 2237 Rocket 3.0 18:45:30 10° NNW 18:50:43 35° NE 18:55:53 10° ESE
Okean 1 3.5 18:47:31 10° NNW 18:51:37 79° WSW 18:55:40 10° S
Cosmos 1812 3.7 18:48:04 10° NNW 18:51:52 53° W 18:55:37 10° S
METEOR-M 4.2 18:49:02 10° SSE 18:54:23 87° WSW 18:59:47 10° NNW
H-2A R/B 3.3 18:51:20 10° SE 18:54:45 36° ENE 18:58:16 10° N
Cosmos 1536 4.1 18:51:56 10° SE 18:54:52 20° E 18:57:47 10° NE
Cosmos 1536 Rocket 3.7 18:51:13 10° NNW 18:55:43 87° W 19:00:12 10° S
SL-19 R/B 4.5 18:52:01 10° SE 18:57:45 64° ENE 19:03:57 10° NNW
Cosmos 1633 3.2 18:55:44 10° SSE 18:59:04 33° E 19:02:26 10° NNE
NOSS 0 Rocket 4.2 18:56:19 10° NNW 19:02:20 51° NE 19:08:19 10° ESE
Meteor 1-25 Rocket 4.3 18:59:39 10° S 19:05:19 87° E 19:11:06 10° NNE
Cosmos 2360 Rocket 2.7 19:00:31 10° NW 19:06:08 64° WSW 19:11:43 10° SSE
Cosmos 2219 Rocket 2.4 19:02:24 10° NNW 19:07:55 54° NE 19:13:24 10° SE
RESURS DK-1 4.1 19:05:26 10° W 19:09:08 30° NW 19:12:49 10° NNE
Cosmos 1818 4.0 19:04:30 10° SSW 19:09:38 43° SE 19:14:48 10° NE
Cosmos 407 Rocket 3.5 19:05:38 10° SSW 19:10:52 67° ESE 19:16:11 10° NNE
Cosmos 1763 Rocket 4.4 19:06:45 10° NNW 19:11:14 29° NE 19:14:26 16° E
Cosmos 1570 Rocket 4.0 19:09:35 10° NNW 19:14:52 87° ENE 19:20:06 10° SSE
Cosmos 676 Rocket 4.1 19:10:27 10° S 19:15:30 54° ESE 19:20:38 10° NE
Cosmos 2219 4.3 19:11:14 10° SSE 19:15:33 22° ESE 19:19:50 10° NE
SL-16 R/B 3.2 19:19:04 10° NNW 19:24:07 31° NE 19:27:20 19° E
Meteor 1-11 Rocket 3.9 19:19:47 10° S 19:25:28 55° E 19:31:16 10° NNE
Cosmos 1602 3.7 19:24:34 10° S 19:28:25 63° E 19:32:19 10° NNE
Cosmos 371 Rocket 4.4 19:24:18 10° NNW 19:28:28 27° NE 19:30:28 21° E
COSMO-SKYMED 1 3.3 19:24:32 10° N 19:28:49 56° WNW 19:33:05 10° SW
Cosmos 1140 Rocket 3.7 19:25:25 10° S 19:30:19 46° ESE 19:35:17 10° NE
Resurs 01 Rocket 1.6 19:26:07 10° SSE 19:30:33 90° W 19:35:00 10° NNW
Cosmos 1300 Rocket 3.5 19:27:26 10° S 19:31:49 65° E 19:36:15 10° NNE
Cosmos 1437 3.8 19:31:17 10° N 19:34:11 27° ENE 19:34:13 27° ENE
Cosmos 468 Rocket 4.1 19:30:09 10° NNW 19:35:20 60° ENE 19:39:26 16° SE
Spot 1 3.9 19:32:34 10° SSE 19:36:38 67° ENE 19:40:51 10° NNW
Cosmos 1340 4.3 19:34:24 10° NNW 19:37:56 37° W 19:41:26 10° SSW
Cosmos 614 Rocket 4.2 19:33:17 10° S 19:38:02 42° ESE 19:42:48 10° NE
Cosmos 1190 Rocket 4.2 19:33:25 10° SW 19:38:36 74° WNW 19:43:51 10° NNE
Cosmos 2181 Rocket 4.4 19:32:59 10° NNW 19:39:08 67° W 19:45:23 10° S
ALOS 2.7 19:34:57 10° S 19:39:36 64° WSW 19:44:16 10° NNW
Cosmos 2333 Rocket 2.2 19:36:03 10° NNW 19:41:49 71° NE 19:46:14 18° SE
Cosmos 2208 Rocket 4.4 19:36:23 10° NNW 19:41:50 68° WSW 19:47:14 10° SSE
Cosmos 1833 4.2 19:36:40 10° SSW 19:42:15 60° ESE 19:47:49 10° NE
Spot 2 Rocket 3.7 19:40:33 10° S 19:45:36 73° WSW 19:50:44 10° NNW
Helios 1A 2.8 19:41:29 10° SSE 19:45:38 75° ENE 19:49:49 10° NNW
Cosmos 2082 Rocket 4.0 19:40:49 10° W 19:45:43 28° NNW 19:50:38 10° NNE
USA 229 DEB 4.1 19:40:24 10° NW 19:47:25 67° SW 19:54:32 10° SSE
USA 229 4.1 19:40:30 10° NW 19:47:31 67° SW 19:54:36 10° SSE
Resurs 1-3 3.8 19:43:54 10° S 19:48:17 74° WSW 19:52:42 10° NNW
Cosmos 1980 3.7 19:43:55 10° NNW 19:49:35 67° NE 19:53:09 23° SE
Helios 1B rocket 3.0 19:46:51 10° NNE 19:50:41 34° E 19:51:10 33° ESE
Cosmos 1814 Rocket 4.0 19:47:47 10° NNW 19:52:57 62° ENE 19:55:48 26° SE
Okean 2 3.3 19:50:31 10° N 19:54:43 77° ENE 19:58:13 14° SSE
Terra 4.0 19:55:30 11° NE 19:55:30 11° NE 19:56:52 10° NNE
USA 186 1.4 19:56:00 48° SSE 19:56:44 83° ENE 19:59:37 10° NNW
CZ-4B DEB 2.5 19:56:49 57° SE 19:57:15 68° ENE 20:00:23 10° N
NOSS 3-4 (A) 4.4 19:51:11 10° W 19:57:27 47° N 20:02:36 17° ENE
NOSS 3-4 (C) 4.3 19:51:18 10° W 19:57:34 47° NNW 20:02:43 17° ENE
Cosmos 1850 Rocket 4.1 19:52:38 10° S 19:57:46 51° ESE 20:02:57 10° NE
Aureole 2 Rocket 3.7 19:55:12 10° NNW 19:58:06 27° NE 19:58:06 27° NE
NOSS 3-1 (A) 3.9 19:52:56 10° NW 20:00:05 79° NE 20:04:58 26° ESE
NOSS 2-2 (E) 4.4 19:56:22 10° WSW 20:00:53 58° NNW 20:05:16 16° NE
Envisat 3.0 19:58:41 22° SE 20:01:54 62° ENE 20:06:57 10° N
Cosmos 1709 Rocket 4.4 19:56:05 10° SSW 20:02:14 67° WNW 20:08:23 10° N
Cosmos 2074 Rocket 3.9 19:56:04 10° S 20:02:15 67° E 20:08:31 10° NNE
SAR-Lupe-1 4.3 20:00:38 13° S 20:03:47 68° WSW 20:07:23 10° NNW
Cosmos 1892 Rocket 3.4 19:59:32 10° N 20:03:55 74° ENE 20:06:29 24° SSE
USA 215 3.3 19:59:49 25° ENE 20:03:59 83° N 20:10:32 10° W
H-2A R/B 4.0 20:05:56 15° NE 20:05:56 15° NE 20:07:42 10° NNE
Cosmos 1954 Rocket 4.0 20:00:03 10° SSW 20:05:17 84° WNW 20:10:35 10° NNE
Cosmos 2184 Rocket 3.9 19:59:03 10° S 20:05:18 68° E 20:11:30 10° NNE
ATLAS 2AS CENTAUR R/B 3.4 19:57:49 10° WNW 20:05:50 55° NNE 20:10:17 27° E
Okean 1 Rocket 3.2 20:02:17 10° SSW 20:06:48 80° WNW 20:11:19 10° N
ERS-1 Rocket 3.2 20:05:24 36° ESE 20:06:58 48° ENE 20:11:49 10° N
SAR-Lupe-4 4.3 20:05:10 10° S 20:08:41 53° WSW 20:12:13 10° NNW
Meteor 1-5 Rocket 4.2 20:06:49 10° S 20:12:44 67° E 20:18:32 10° NNE
TSX-5 3.4 20:11:52 10° SW 20:15:03 76° NW 20:15:49 50° NNE
Cosmos 1515 3.6 20:11:30 10° N 20:15:21 65° ENE 20:15:32 64° E
Nadezhda 3 Rocket 3.9 20:10:31 10° N 20:16:42 75° ENE 20:21:25 18° SSE
SPOT 5 3.6 20:17:55 35° ENE 20:18:04 35° ENE 20:22:43 10° N
Cosmos 405 Rocket 2.9 20:14:12 10° NNW 20:18:19 77° W 20:20:17 30° S
Cosmos 1025 Rocket 4.0 20:14:22 10° NNW 20:18:36 49° W 20:22:50 10° S
NOSS 3-1 (C) 4.0 20:12:29 10° NW 20:19:40 81° SW 20:24:22 28° SE
GEOS 3 Rocket 3.7 20:20:50 42° E 20:22:09 52° SE 20:27:17 10° SSW
H-2A R/B 3.3 20:24:23 27° NE 20:24:23 27° NE 20:28:43 10° N
Cosmos 1939 Rocket 2.7 20:24:56 72° SE 20:25:17 80° ENE 20:29:18 10° NNW
ATLAS CENTAUR R/B 3.1 20:22:09 10° WNW 20:25:39 24° N 20:27:03 20° NNE
Cosmos 2341 Rocket 4.2 20:26:53 39° SE 20:28:29 46° E 20:34:33 10° NNE
COSMOS 2428 4.2 20:25:53 10° NW 20:30:58 34° WSW 20:36:02 10° S
Cosmos 1536 3.5 20:27:04 10° SSW 20:30:59 54° WNW 20:34:55 10° N
Cosmos 1603 4.5 20:28:29 10° NNW 20:33:43 36° NE 20:34:28 34° NE
Cosmos 2154 Rocket 4.0 20:28:03 10° S 20:34:17 62° E 20:40:33 10° NNE
Cosmos 1066 Rocket 4.1 20:29:29 10° NNW 20:35:16 76° ENE 20:37:04 45° SSE
Cosmos 2237 Rocket 2.3 20:29:35 10° NW 20:35:19 74° WSW 20:37:45 36° SSE
Meteor 2-13 Rocket 4.3 20:33:22 10° S 20:39:26 79° E 20:45:34 10° NNE
Cosmos 841 Rocket 3.3 20:34:58 10° NNW 20:40:11 83° ENE 20:41:02 63° SE
Cosmos 1727 Rocket 4.4 20:35:18 10° N 20:41:19 42° ENE 20:41:29 42° ENE
Cosmos 1602 Rocket 3.7 20:39:07 10° N 20:42:55 59° NNE 20:42:55 59° NNE
YAOGAN 11 4.2 20:44:22 62° NE 20:44:22 62° NE 20:48:27 10° NNW
YAOGAN 6 4.1 20:47:47 29° N 20:47:47 29° N 20:49:42 10° N
Cosmos 1741 Rocket 4.0 20:43:40 10° SSW 20:48:54 78° WNW 20:54:10 10° NNE
Cosmos 1626 Rocket 3.7 20:45:21 10° N 20:49:17 67° N 20:49:17 67° N
ARGOS 3.3 20:50:59 53° ENE 20:50:59 53° ENE 20:56:03 10° N
Cosmos 1441 Rocket 3.7 20:47:19 10° NNW 20:50:46 61° NW 20:50:46 61° NW
Cosmos 2219 Rocket 3.3 20:46:36 10° NW 20:51:47 39° WSW 20:55:22 18° S
Cosmos 1818 4.0 20:47:44 10° WSW 20:53:09 60° NW 20:55:44 30° NE
Cosmos 1763 Rocket 3.6 20:48:25 10° NNW 20:53:32 70° WSW 20:54:29 56° S
Cosmos 332 Rocket 3.9 20:53:12 10° NNW 20:58:07 73° WSW 20:58:28 69° SSW
Cosmos 2219 3.1 20:53:16 10° SSW 20:59:02 89° WNW 21:03:44 16° NE
Cosmos 836 Rocket 4.4 20:57:39 10° NNW 21:02:55 81° NE 21:02:55 81° NE
SPOT 1/Viking Rocket 4.0 21:05:23 48° NNE 21:05:23 48° NNE 21:09:31 10° N
Cosmos 540 Rocket 3.6 21:01:15 10° NNW 21:05:44 61° NNE 21:05:44 61° NNE
SL-16 R/B 2.1 21:03:12 10° NW 21:08:55 85° SW 21:09:14 80° S
Cosmos 371 Rocket 3.4 21:04:31 10° NNW 21:09:09 72° W 21:09:09 72° W
MetOp-B 4.0 21:09:25 88° ENE 21:09:25 88° ENE 21:14:49 10° NNW
Cosmos 962 Rocket 4.3 21:08:36 62° S 21:09:41 80° E 21:15:51 10° NNE
Cosmos 1943 4.1 21:11:06 10° NNW 21:15:57 36° NNE 21:15:57 36° NNE
NOAA 11 4.2 21:25:33 77° WNW 21:25:33 77° WNW 21:30:46 10° NNW
Cosmos 2333 Rocket 3.8 21:20:48 10° NW 21:25:42 29° WSW 21:28:17 21° SSW
Helios 1B rocket 3.9 21:22:12 10° N 21:26:02 36° WNW 21:27:38 26° WSW
Cosmos 2082 Rocket 4.5 21:27:57 10° NW 21:31:46 18° N 21:34:41 13° NNE
Terra 3.5 21:34:23 25° N 21:34:23 25° N 21:36:35 10° N
H-2A R/B 4.0 21:43:03 24° NNW 21:43:03 24° NNW 21:44:49 10° NNW
ERS-1 Rocket 4.3 21:45:24 34° WSW 21:45:56 34° W 21:50:33 10° NNW
USA 215 3.1 21:47:09 86° NW 21:47:09 86° NW 21:53:36 10° WNW
NOSS 3-4 (A) 4.2 21:43:07 10° WNW 21:49:35 50° NNE 21:50:02 49° NNE
NOSS 3-4 (C) 4.2 21:43:14 10° WNW 21:49:42 50° NNE 21:50:10 49° NNE
SL-8 Rocket 4.3 21:55:12 59° N 21:55:12 59° N 22:00:18 10° N
SPOT 5 4.1 21:57:09 40° WNW 21:57:09 40° WNW 22:00:59 10° NNW
ATLAS 2AS CENTAUR R/B 2.9 21:49:22 10° NW 21:57:35 86° SW 21:57:44 85° S
H-2A R/B 3.1 22:05:00 44° NNW 22:05:00 44° NNW 22:08:42 10° NNW
ATLAS CENTAUR R/B 4.1 22:02:09 10° NW 22:03:20 16° NNW 22:03:20 16° NNW
Cosmos 2237 Rocket 4.4 22:14:55 10° WNW 22:18:28 17° W 22:19:36 16° WSW
SL-16 R/B 4.3 22:48:16 10° NW 22:51:08 19° W 22:51:08 19° W
Cosmos 2082 Rocket 4.4 23:13:29 10° NNW 23:16:32 21° N 23:16:32 21° N
ATLAS 2AS CENTAUR R/B 4.5 23:40:56 10° WNW 23:45:11 26° W 23:45:11 26° W
